Terminal Aerodrome Forecast
Issued by NWS

Home | Current Version | Previous Version | Text Only | Print | Product List | Glossary On
Versions: 1 2 3 4 5 6 7 8 9 10 11 12 13 14 15 16 17 18 19 20 21 22 23
000
FTUS46 KMFR 260548
TAFOTH
TAF
KOTH 260548Z 2606/2706 35012G20KT P6SM OVC009
     FM260800 36010KT P6SM OVC007
     FM261700 32007KT P6SM OVC012
     FM261900 35015G25KT P6SM SCT012=

USA.gov is the U.S. government's official web portal to all federal, state and local government web resources and services.